Tracking 20942 objects as of 14-Jul-2020
HD Live streaming from Space Station
objects crossing your sky now

COSMOS 1375 DEB

Track COSMOS 1375 DEB now!
10-day predictions


NORAD ID: 16206
Int'l Code: 1982-055H
Perigee: 981.6 km
Apogee: 1,008.1 km
Inclination: 65.8 °
Period: 104.9 minutes
Semi major axis: 7365 km
RCS: 0.4888 m2 (medium)
Launch date: June 6, 1982
Source: Commonwealth of Independent States (former USSR) (CIS)
Launch site: PLESETSK MISSILE AND SPACE COMPLEX (PKMTR)

Note: This is SATELLITE DEBRIS
aabbcc
Your satellite tracking list
Your tracking list is empty




NASA's NSSDC Master Catalog

Two Line Element Set (TLE):
1 16206U 82055H   20196.29005674 -.00000050  00000-0  32485-4 0  9998
2 16206  65.8347 135.3066 0017986 350.5466 163.1647 13.73299009909474
Source of the keplerian elements: AFSPC